Location: Unspecified
(0.0000°N, 0.0000°E)
Time: 04:35:44
(UTC+00:00)

Explorer 11/Cluster Stage 4 - Visible Passes

Search period start: 19 April 2015 00:00
Search period end: 29 April 2015 00:00
Orbit: 467 x 1273 km, 28.8° (Epoch: 18 April)

Date Brightness Start Highest point End Pass type
(mag) Time Alt. Az. Time Alt. Az. Time Alt. Az.
24 Apr 8.2 19:12:15 10° N 19:13:43 12° NNE 19:14:34 11° NE visible
25 Apr 7.8 19:02:42 10° NNW 19:05:32 16° NNE 19:06:55 14° NE visible
26 Apr 7.6 18:53:34 10° NNW 18:57:19 22° NNE 18:59:17 16° ENE visible
27 Apr 7.3 18:44:36 10° NW 18:49:03 30° NNE 18:51:40 17° ENE visible
27 Apr 9.0 20:33:33 10° WNW 20:33:59 12° W 20:33:59 12° W visible
28 Apr 6.9 18:35:44 10° NW 18:40:46 40° NNE 18:44:04 15° E visible
28 Apr 8.8 20:25:20 10° W 20:26:23 15° W 20:26:23 15° W visible
